Location: Einselthum
(49.6515°N, 8.1246°E)
Time: 23:59:51
(UTC+00:00)

Daily predictions for brighter satellites

Satellite Brightness Start Highest point End
(mag) Time Altitude Azimuth Time Altitude Azimuth Time Altitude Azimuth
CZ-4B R/B 4.2 20:17:00 10° SSW 20:20:11 31° W 20:23:17 10° NNW
USA 238 DEB 4.2 20:14:48 10° NW 20:22:07 69° SW 20:30:02 10° SSE
USA 238 4.2 20:14:54 10° NW 20:22:13 70° SW 20:30:09 10° SSE
ERS-1 Rocket 3.4 20:19:29 10° S 20:24:26 63° WSW 20:29:26 10° NNW
Cosmos 1437 Rocket 4.1 20:21:50 10° SE 20:24:27 20° E 20:27:05 10° NE
Cosmos 921 Rocket 3.4 20:20:26 10° S 20:24:28 43° ESE 20:28:36 10° NNE
SL-14 R/B 3.4 20:28:45 10° S 20:32:36 58° E 20:36:28 10° NNE
SL-8 R/B 3.7 20:34:25 10° W 20:39:11 73° S 20:43:56 10° ESE
In-Cosmos 22 4.3 20:35:09 10° S 20:40:54 89° W 20:46:35 10° NNE
USA 290 4.5 20:41:57 10° ESE 20:42:32 10° E 20:43:07 10° E
Cosmos 2237 Rocket 2.8 20:37:03 10° NW 20:42:34 54° WSW 20:48:05 10° S
Cosmos 1459 Rocket 4.1 20:36:29 10° N 20:42:49 73° E 20:49:10 10° SSE
Meteor 1-15 Rocket 4.3 20:42:06 10° N 20:47:43 65° ENE 20:53:03 11° SSE
Cosmos 1802 Rocket 4.2 20:41:20 10° N 20:47:44 63° ENE 20:53:56 11° SSE
SL-4 R/B 3.8 20:47:40 12° SE 20:48:28 12° SE 20:50:14 10° ESE
Cosmos 1666 Rocket 4.3 20:45:06 10° NNW 20:49:26 52° W 20:53:44 10° S
Meteor 2-10 Rocket 4.2 20:43:55 10° NNW 20:49:34 60° W 20:54:58 10° S
USA 305 2.6 20:47:36 10° SW 20:51:23 48° SE 20:54:38 10° ENE
Cosmos 1953 3.6 20:50:17 10° NNE 20:53:25 25° ENE 20:56:11 12° SE
Okean-O 4.2 20:52:24 10° SSW 20:56:18 31° W 21:00:13 10° NNW
Cosmos 1633 Rocket 3.8 20:55:24 10° NNW 20:59:34 48° W 21:03:42 10° SSW
Meteor 1-22 Rocket 4.2 20:54:30 10° NNW 20:59:52 87° W 21:05:14 11° S
Lacrosse 4 Rocket 1.5 20:56:21 10° NW 21:00:33 72° WSW 21:04:06 14° SSE
NOSS 3-4 (A) 3.5 20:57:12 10° SW 21:02:36 72° NW 21:08:37 10° NE
NOSS 3-4 (C) 3.5 20:57:19 10° SW 21:02:41 73° NW 21:08:43 10° NE
Cosmos 1818 3.5 21:00:13 10° SW 21:05:40 83° SE 21:11:10 10° NE
Cosmos 2016 Rocket 4.1 21:00:35 10° N 21:06:56 72° ENE 21:12:39 13° SSE
Cosmos 1455 3.6 21:08:24 10° NW 21:10:33 21° W 21:12:42 10° SW
Ariane Rocket 3.3 21:09:58 11° S 21:14:53 63° WSW 21:19:57 10° NNW
Cosmos 2297 Rocket 3.3 21:09:51 10° SW 21:15:19 48° NW 21:20:50 10° NNE
USA 59 Rocket 2.3 21:14:10 10° N 21:15:49 13° NNE 21:17:37 10° NE
SPOT 3 Rocket 4.1 21:14:39 10° S 21:19:40 54° W 21:24:44 10° NNW
Cosmos 1470 Rocket 4.4 21:15:57 10° NNW 21:20:05 46° W 21:24:15 10° SSW
GP-B 3.3 21:16:29 10° N 21:20:48 55° E 21:24:00 17° SSE
Cosmos 1758 4.4 21:19:20 10° NNW 21:22:46 35° W 21:26:10 10° SSW
Cosmos 1269 Rocket 4.4 21:20:32 13° S 21:25:00 47° ESE 21:30:04 10° NNE
Cosmos 2084 Rocket 3.7 21:22:19 10° NW 21:26:24 54° SW 21:29:07 19° SSE
Meteor 1-12 Rocket 4.4 21:20:50 10° N 21:26:45 81° ENE 21:31:34 16° SSE
ATLAS CENTAUR R/B 2.5 21:25:24 10° WNW 21:28:42 28° WSW 21:31:05 15° S
Cosmos 489 Rocket 4.5 21:23:55 10° NNW 21:30:10 85° ENE 21:35:02 17° SSE
Cosmos 1933 Rocket 3.7 21:26:54 10° NNW 21:31:18 73° W 21:34:40 16° S
SL-16 R/B 2.4 21:31:49 10° NNW 21:37:26 66° WSW 21:41:38 18° SSE
NOSS 3 (A) 4.2 21:35:37 10° NW 21:38:04 85° SW 21:39:34 27° SE
Terra 4.2 21:36:15 10° SW 21:39:04 16° W 21:41:55 10° NW
Cosmos 1515 Rocket 4.3 21:35:39 10° SSW 21:39:57 51° WNW 21:44:19 10° N
ALOS 2 4.4 21:37:03 11° ESE 21:40:15 22° ENE 21:43:37 10° NNE
Meteor 1-23 Rocket 4.3 21:35:39 10° SSW 21:41:13 82° WNW 21:46:53 10° N
Cosmos 2344 4.1 21:33:39 10° NW 21:41:29 70° NE 21:51:58 10° SE
DELTA 2 DEB (DPAF) 3.8 21:38:02 10° NNE 21:41:56 64° ESE 21:44:30 20° S
Cosmos 1733 Rocket 3.8 21:38:14 10° N 21:42:24 40° ENE 21:45:01 20° SE
Cosmos 2227 Rocket 2.8 21:38:15 10° SW 21:43:48 59° WNW 21:49:25 10° NNE
Cosmos 2233 Rocket 4.1 21:38:18 10° N 21:44:40 87° WSW 21:49:37 17° S
RESURS DK-1 2.7 21:40:52 10° SW 21:44:50 65° WNW 21:48:51 10° NNE
Cosmos 1869 Rocket 3.6 21:41:12 10° NNW 21:45:37 78° W 21:48:34 20° S
COSMOS 2455 4.4 21:40:46 10° NW 21:45:39 26° WSW 21:50:26 10° SSW
Meteor 1-21 4.3 21:42:07 12° S 21:47:23 90° ESE 21:53:11 10° NNE
Meteor 1-16 Rocket 4.3 21:42:06 10° NNW 21:47:54 86° W 21:52:16 19° S
Cosmos 2263 Rocket 2.2 21:42:36 10° SSW 21:48:16 85° ESE 21:54:01 10° NNE
Okean 2 3.5 21:50:02 24° SSE 21:52:08 55° E 21:55:58 10° NNE
Okean 3 3.5 21:50:57 23° SSE 21:53:16 56° E 21:57:17 10° NNE
CZ-2C R/B 4.4 21:49:23 10° NNE 21:53:39 39° E 21:56:00 23° SSE
Aureole 3 Rocket 3.8 21:52:53 10° NNE 21:55:39 27° ENE 21:57:14 19° ESE
Cosmos 1943 3.3 21:53:20 10° NNW 21:59:05 73° ENE 22:03:04 20° SE
Cosmos 1437 Rocket 4.1 21:56:09 10° SW 21:59:20 31° WNW 22:02:35 10° N
ASTEX 1 3.7 21:54:36 10° NNE 21:59:28 52° E 22:02:22 23° SSE
SeaSat 1 4.1 21:58:47 10° E 22:02:52 27° NE 22:06:58 10° NNW
Geosat 4.3 22:03:16 10° NNE 22:08:16 69° NW 22:13:14 10° SW
Cosmos 1763 Rocket 3.7 22:03:58 10° NNW 22:09:05 60° ENE 22:12:23 21° SE
Cosmos 2219 3.3 22:03:25 10° SSW 22:09:10 79° WNW 22:14:58 10° NNE
COBE Rocket 4.4 22:05:45 10° N 22:10:45 61° WNW 22:15:12 12° SSW
MetOp-A 3.8 22:10:28 24° SSE 22:13:19 77° ENE 22:17:51 10° NNW
Cosmos 1862 Rocket 3.8 22:11:30 26° SSE 22:13:46 57° E 22:18:07 10° NNE
Helios 1B 4.5 22:10:40 10° NNE 22:14:58 87° W 22:17:43 22° SSW
USA 290 2.8 22:14:12 17° SW 22:16:25 55° WNW 22:19:35 10° NNE
Cosmos 1603 4.1 22:11:01 10° NNW 22:16:33 56° NE 22:20:41 18° SE
Cosmos 1271 Rocket 4.2 22:16:29 19° ESE 22:17:24 21° E 22:20:10 10° NE
Cosmos 2082 3.7 22:12:58 10° SSW 22:18:37 86° WNW 22:24:24 10° NNE
Cosmos 2292 Rocket 2.4 22:18:12 38° S 22:19:11 90° WNW 22:22:06 10° N
USA 305 3.2 22:16:25 10° W 22:20:00 49° NNW 22:22:51 10° ENE
SL-8 R/B 4.3 22:16:48 10° W 22:21:11 36° SSW 22:22:54 27° SSE
Okean 1-7 3.4 22:19:41 28° SSE 22:21:25 45° E 22:25:23 10° NNE
SWAS 4.2 22:18:43 10° NNW 22:22:49 86° WSW 22:24:44 30° SSE
ARIANE 5 R/B 2.6 22:20:49 27° SSE 22:23:12 90° ENE 22:27:42 10° NNW
SL-4 R/B 2.1 22:21:48 10° SW 22:25:47 49° SSE 22:29:40 10° ENE
Cosmos 1953 3.7 22:25:25 10° NNW 22:28:40 28° W 22:30:44 17° SW
Cosmos 1140 Rocket 3.6 22:26:48 14° SSW 22:31:12 72° WNW 22:36:21 10° NNE
Spot 4 3.8 22:30:33 27° SSE 22:33:13 82° ENE 22:38:05 10° NNW
Cosmos 1703 3.2 22:34:57 30° SSW 22:36:30 65° WNW 22:39:59 10° N
PSLV R/B 4.5 22:32:50 10° NNE 22:36:48 35° E 22:38:27 26° SE
Cosmos 2227 4.3 22:33:33 24° S 22:36:54 60° ESE 22:42:26 10° NE
NOSS 3-1 (C) 4.0 22:29:55 10° NW 22:37:00 77° SW 22:43:29 20° SSE
SJ 16-02 3.2 22:38:57 15° ESE 22:40:05 16° E 22:42:47 10° ENE
Cosmos 1072 Rocket 4.4 22:35:20 10° N 22:41:32 86° E 22:45:16 25° S
Cosmos 1892 2.3 22:43:00 39° SW 22:43:53 63° WNW 22:46:52 10° N
CZ-4C R/B 4.3 22:47:52 10° N 22:50:51 33° WNW 22:52:42 18° WSW
USA 307 3.3 22:54:11 32° SE 22:54:11 32° SE 22:57:35 10° ENE
Cosmos 407 Rocket 3.5 22:50:55 21° SSW 22:54:22 80° WNW 22:59:31 10° NNE
Cosmos 2228 Rocket 3.5 22:54:32 24° SSW 22:57:05 59° WNW 23:01:30 10° N
Cosmos 1844 Rocket 2.7 22:54:47 26° S 22:58:03 67° ESE 23:03:43 10° NNE
Cosmos 1703 Rocket 3.8 22:59:24 32° SSE 23:01:08 56° E 23:05:21 10° NNE
USA 234 4.1 22:56:01 10° ENE 23:01:36 29° SE 23:03:50 24° SSE
Cosmos 1782 Rocket 4.3 22:57:23 10° N 23:01:38 44° ENE 23:03:54 24° SE
Cosmos 2251 Rocket 3.5 22:59:05 26° SSW 23:02:09 79° ESE 23:07:32 10° NNE
OPS 6432 4.3 22:59:06 10° NW 23:02:25 73° NE 23:03:35 35° ESE
Cosmos 1844 3.7 22:59:50 27° S 23:02:53 65° ESE 23:08:23 10° NNE
Cosmos 1816 Rocket 4.5 22:59:37 26° S 23:03:23 80° E 23:09:44 10° NNE
USA 59 Rocket 0.1 23:01:52 10° NW 23:05:18 63° NE 23:08:26 18° SE
Cosmos 1707 Rocket 4.5 23:05:01 19° SW 23:07:38 40° WNW 23:11:43 10° N
Landsat 5 3.8 23:03:27 10° N 23:07:40 60° WNW 23:09:56 25° SW
Cosmos 1954 Rocket 4.2 23:07:46 29° S 23:10:16 58° ESE 23:15:23 10° NNE
ATLAS 3B R/B 4.0 23:03:53 10° NW 23:11:31 48° NNE 23:18:56 10° ESE
Cosmos 540 Rocket 3.8 23:07:12 10° NNW 23:12:11 53° WSW 23:14:32 29° S
Cosmos 1190 Rocket 4.0 23:12:31 28° SSW 23:15:25 79° ESE 23:20:43 10° NNE
Tsikada Rocket 4.3 23:12:12 25° SSE 23:15:45 59° E 23:21:54 10° NNE
ALOS 2 3.1 23:14:27 30° SSW 23:16:17 50° W 23:20:35 10° NNW
Meteor 1-24 Rocket 4.0 23:13:40 27° SSE 23:16:59 63° E 23:22:50 10° NNE
SL-16 R/B 4.5 23:19:03 10° W 23:20:25 11° W 23:21:45 10° WSW
Cosmos 1606 3.7 23:19:40 10° NNE 23:22:22 27° ENE 23:23:21 22° ESE
Cosmos 468 Rocket 4.1 23:17:57 10° NNW 23:23:02 60° WSW 23:25:26 30° S
Cosmos 841 Rocket 3.6 23:19:04 10° NNW 23:24:21 75° ENE 23:27:33 24° SSE
NOSS 3-1 (A) 4.0 23:18:15 10° NW 23:25:22 77° SW 23:32:25 17° SSE
Spot 1 4.4 23:20:54 10° NNE 23:25:51 81° WNW 23:28:37 27° SSW
Cosmos 1464 Rocket 4.5 23:21:19 10° NNW 23:27:21 50° W 23:31:00 23° SSW
ATLAS 2AS CENTAUR R/B 3.1 23:25:06 25° S 23:29:00 49° ESE 23:35:38 10° NE
BREEZE-M DEB (TANK) 4.0 23:28:12 28° S 23:29:10 30° SSE 23:32:08 10° E
Meteor 2-5 Rocket 3.9 23:27:46 27° S 23:31:06 75° E 23:37:03 10° NNE
Cosmos 2263 Rocket 4.4 23:28:25 10° W 23:32:56 24° NW 23:37:28 10° NNE
Meteor 2-17 Rocket 4.4 23:30:04 27° S 23:33:33 82° E 23:39:38 10° NNE
H-2A R/B 3.9 23:31:18 14° ESE 23:33:37 26° ENE 23:36:42 10° N
Cosmos 2034 Rocket 4.2 23:28:12 10° NNW 23:34:21 64° W 23:37:59 26° SSW
Cosmos 1833 Rocket 3.5 23:33:05 10° NNW 23:38:33 49° NE 23:43:58 10° SE
SeaSat 1 2.5 23:37:33 29° S 23:39:57 64° WSW 23:44:50 10° NW
Cosmos 1908 Rocket 4.3 23:36:09 10° NNW 23:40:16 42° W 23:42:02 28° SW
USA 305 4.0 23:46:07 10° WNW 23:48:53 27° N 23:50:58 10° ENE
Cosmos 1271 Rocket 3.9 23:50:19 21° WSW 23:51:56 31° WNW 23:55:12 10° N
CZ-2C R/B 4.0 23:49:33 10° NNE 23:54:38 38° E 23:57:35 21° SSE
